Regional Weather Roundup
Issued by NWS Cleveland, OH

Home | Current Version | Previous Version | Text Only | Print | Product List | Glossary On
Versions: 1 2 3 4 5 6 7 8 9 10 11 12 13 14 15 16 17 18 19 20 21 22 23 24 25 26 27 28 29 30 31 32 33 34 35 36 37 38 39 40 41 42 43 44 45 46 47 48 49 50
000
ASUS41 KCLE 310612
RWRCLE
OHIO REGIONAL WEATHER ROUNDUP
NATIONAL WEATHER SERVICE WILMINGTON, OH
200 AM EDT SAT JUL 31 2021

NOTE: "FAIR" INDICATES FEW OR NO CLOUDS BELOW 12,000 FEET WITH NO
SIGNIFICANT WEATHER AND/OR OBSTRUCTIONS TO VISIBILITY.

OHZ001>008-015>018-024>027-034-035-043-044-310700-
   NORTHWEST OHIO

CITY           SKY/WX    TMP DP  RH WIND       PRES   REMARKS
DEFIANCE       FAIR      65  59  81 NW3       30.07S
FINDLAY        FAIR      68  60  75 E6        30.06F
TOLEDO EXPRESS FAIR      67  58  72 SE3       30.06F
TOLEDO EXEC    FAIR      66  59  78 CALM      30.08S
LIMA           FAIR      66  60  81 CALM      30.07F
$$

OHZ009>014-019>023-028>033-038-089-310700-
   NORTHEAST OHIO

CITY           SKY/WX    TMP DP  RH WIND       PRES   REMARKS
CLE-HOPKINS    MOCLDY    65  50  58 NE3       30.06F
CLE-LAKEFRONT  FAIR      69  52  54 N8        30.06F
CUY CO. ARPT   FAIR      55  50  83 CALM      30.09F
LORAIN-ELYRIA  FAIR      61  57  87 CALM      30.08F
ASHTABULA      FAIR      54  52  93 CALM      30.07F
AKRON-CANTON   FAIR      59  53  80 N6        30.08F
WOOSTER        FAIR      57  54  89 CALM      30.09F
MANSFIELD      FAIR      62  56  80 CALM      30.09F
YOUNGSTOWN     MOCLDY    54  51  90 SW3       30.08F
$$

OHZ042-051>053-060>062-070>072-077>081-310700-
  SOUTHWEST OHIO

CITY           SKY/WX    TMP DP  RH WIND       PRES   REMARKS
CINC-COVINGTON FAIR      70  59  68 N6        30.05F
CINC-LUNKEN    FAIR      67  63  87 CALM      30.05F
HAMILTON       FAIR      66  63  90 CALM      30.06F
DAYTON         CLOUDY    68  57  68 N3        30.09S
WRIGHT-PAT AFB CLOUDY    67  58  72 CALM      30.06F
DAYTON GENERAL NOT AVBL
WILMINGTON     FAIR      66  61  84 NE5       30.06F
$$

OHZ036-037-039>041-045>050-054>059-063>069-073>076-082>088-310700-
  CENTRAL AND SOUTHEAST OHIO

CITY           SKY/WX    TMP DP  RH WIND       PRES   REMARKS
COLUMBUS       FAIR      67  58  72 E3        30.06F
OSU AIRPORT    FAIR      66  61  84 CALM      30.07F
BOLTON FIELD   FAIR      65  60  84 CALM      30.07F
RICKENBACK AFB FAIR      66  59  79 NE6       30.06F
NEWARK         FAIR      64  58  80 CALM      30.07F
MARION         NOT AVBL
LANCASTER      FAIR      64  62  93 CALM      30.07F
ZANESVILLE     FAIR      63  58  83 CALM      30.08S
NEW PHILLY     FAIR      60  58  92 CALM      30.09S
$$



USA.gov is the U.S. government's official web portal to all federal, state and local government web resources and services.